Ana Sayfa
METAR-TAF:

METAR-TAF

Havaalanları :

Ghanzi, Botsvana

Enlem: 21-42S, Boylam: 021-39E, yükseklik: 1131 m

METAR: eksik

Saat: 14:16 (12:16 UTC)

Tahmin

Rapor saat 03:00 UTC de 33 saat ve 16 dakika önce yapıldı.
Ayın 21'si saat 06 UTC'den ayın 21'si saat 15 UTC'ye kadar geçerli Tahmin
Rüzgar doğu/kuzeydoğudan 5 kt
Görüş mesafesi 10 km veya daha fazla
1500 m altında bulut yok ve kümülonimbus yok

TAF: FBGZ 210300Z 2106/2115 07005KT CAVOK

4.000'den fazla havaalanı için hava durumu gözlemleri ve tahminleri (METAR ve TAF raporları).

Kullanılabilir istasyonlar harita üzerinde sarı ve kırmızı noktalarla gösterilir.

İstasyonun adını görmek için fareyi noktanın üzerinde gezdirin.

Sonrasında hava gözlem ve tahminlerini görmek için tıklayın.

Haritayı değiştirmek için: yaklaştırmak için siyah artı işaretli yeşil düğmeye ve uzaklaştırmak için de eksi işaretli düğmeye hızla tıklayın; bitişik haritalar için yeşil okları kullanın.


METAR-TAF: